Вернуться в каталог

STARLINK-1526

АктивенСвязьVLEO
NORAD 46029·PAYLOAD·🇺🇸 United States

Запущен Aug 7, 2020 с Cape Canaveral Space Force Station

Loading…

Ближайшие Пролёты (ближайшие 24 часа)

TLE

СвежийSource: CelesTrak SupGP

Эпоха: Sep 15, 2026, 00:52 UTC

1 46029C 20055C   26258.03659722  .00049835  00000+0  16025-2 0  2582
2 46029  53.1591 326.2431 0001288  87.9576 279.5678 15.31678863    12

Отслеживайте STARLINK-1526 в реальном времени с AllMySat

Download on the App Store